TimeCST,TemperatureF,Dew PointF,Humidity,Sea Level PressureIn,VisibilityMPH,Wind Direction,Wind SpeedMPH,Gust SpeedMPH,PrecipitationIn,Events,Conditions,WindDirDegrees,DateUTC
12:54 AM,34.0,30.9,89,29.97,10.0,East,4.6,-,N/A,,Mostly Cloudy,80,2013-02-07 06:54:00
1:54 AM,34.0,30.9,89,29.95,10.0,ESE,6.9,-,N/A,,Mostly Cloudy,110,2013-02-07 07:54:00
2:54 AM,33.1,30.9,92,29.95,8.0,East,4.6,-,N/A,,Clear,100,2013-02-07 08:54:00
3:54 AM,35.1,30.9,85,29.94,9.0,SE,4.6,-,N/A,,Overcast,130,2013-02-07 09:54:00
4:54 AM,34.0,30.9,89,29.93,9.0,ESE,5.8,-,N/A,,Overcast,120,2013-02-07 10:54:00
5:54 AM,33.1,30.9,92,29.93,6.0,ENE,3.5,-,N/A,,Overcast,70,2013-02-07 11:54:00
6:54 AM,33.1,32.0,96,29.93,4.0,East,4.6,-,0.01,Rain,Light Rain,80,2013-02-07 12:54:00
7:38 AM,33.8,32.0,93,29.91,2.0,ENE,3.5,-,0.04,Rain,Light Rain,60,2013-02-07 13:38:00
7:54 AM,33.1,32.0,96,29.94,2.5,ENE,3.5,-,0.06,Rain,Light Rain,70,2013-02-07 13:54:00
8:08 AM,33.8,32.0,93,29.92,1.8,Calm,Calm,-,N/A,Rain,Light Rain,0,2013-02-07 14:08:00
8:54 AM,33.1,33.1,100,29.97,1.2,Calm,Calm,-,0.07,Rain,Rain,0,2013-02-07 14:54:00
9:09 AM,33.8,33.8,100,29.95,1.5,Calm,Calm,-,0.02,Rain,Light Rain,0,2013-02-07 15:09:00
9:18 AM,33.8,33.8,100,29.95,1.5,NNW,3.5,-,0.02,,Overcast,340,2013-02-07 15:18:00
9:36 AM,33.8,33.8,100,29.95,1.2,NNW,5.8,-,0.02,,Overcast,330,2013-02-07 15:36:00
9:45 AM,33.8,33.8,100,29.95,1.5,NNW,6.9,-,0.02,,Overcast,330,2013-02-07 15:45:00
9:54 AM,34.0,33.1,96,29.97,1.8,NNW,5.8,-,0.02,,Overcast,340,2013-02-07 15:54:00
10:07 AM,33.8,33.8,100,29.95,2.0,North,5.8,-,N/A,,Overcast,350,2013-02-07 16:07:00
10:31 AM,33.8,33.8,100,29.95,2.5,North,4.6,-,0.00,Rain,Light Rain,10,2013-02-07 16:31:00
10:38 AM,33.8,33.8,100,29.95,2.5,NNE,3.5,-,0.00,Rain,Light Rain,20,2013-02-07 16:38:00
10:54 AM,34.0,34.0,100,29.98,2.0,NE,3.5,-,0.00,Rain,Light Rain,50,2013-02-07 16:54:00
11:54 AM,35.1,33.1,92,29.97,2.5,NNW,6.9,-,0.00,Rain,Light Rain,330,2013-02-07 17:54:00
12:06 PM,35.6,33.8,93,29.94,2.5,NNW,6.9,-,0.00,Rain,Light Rain,330,2013-02-07 18:06:00
12:54 PM,35.1,33.1,92,29.96,3.0,NNW,10.4,-,0.00,,Overcast,340,2013-02-07 18:54:00
1:45 PM,35.6,32.0,87,29.93,2.5,North,12.7,-,N/A,,Overcast,350,2013-02-07 19:45:00
1:54 PM,34.0,32.0,92,29.96,2.5,North,15.0,-,N/A,,Overcast,350,2013-02-07 19:54:00
2:54 PM,33.1,30.0,89,29.98,2.0,NNW,15.0,-,N/A,,Overcast,330,2013-02-07 20:54:00
3:19 PM,32.0,30.2,93,29.96,1.8,NNW,18.4,-,N/A,,Overcast,330,2013-02-07 21:19:00
3:54 PM,30.9,28.9,92,30.00,1.5,North,16.1,-,N/A,,Overcast,350,2013-02-07 21:54:00
4:54 PM,30.0,28.0,92,30.04,1.5,NNW,13.8,-,N/A,,Overcast,340,2013-02-07 22:54:00
5:25 PM,30.2,28.4,93,30.02,2.5,NNW,17.3,-,N/A,,Overcast,340,2013-02-07 23:25:00
5:33 PM,30.2,26.6,86,30.02,3.0,NNW,18.4,-,N/A,,Overcast,340,2013-02-07 23:33:00
5:54 PM,30.0,27.0,88,30.07,4.0,NNW,17.3,-,N/A,,Overcast,340,2013-02-07 23:54:00
6:54 PM,28.9,26.1,89,30.09,5.0,NNW,18.4,-,N/A,,Overcast,340,2013-02-08 00:54:00
7:54 PM,28.0,26.1,92,30.12,6.0,NNW,17.3,25.3,N/A,,Overcast,340,2013-02-08 01:54:00
8:54 PM,28.0,25.0,88,30.14,7.0,North,17.3,-,N/A,,Overcast,350,2013-02-08 02:54:00
9:43 PM,28.4,24.8,86,30.12,9.0,North,19.6,25.3,N/A,,Overcast,360,2013-02-08 03:43:00
9:54 PM,28.0,24.1,85,30.16,9.0,NNW,19.6,-,N/A,,Overcast,340,2013-02-08 03:54:00
10:54 PM,26.6,23.0,86,30.14,10.0,North,18.4,-,N/A,,Overcast,360,2013-02-08 04:54:00
11:54 PM,27.0,23.0,85,30.19,10.0,North,19.6,-,N/A,,Overcast,350,2013-02-08 05:54:00